SCP
0 0 0 0 0 0 0 0 0 0 0 0 0 0 0 0 0 0 0 0 0 0 0 0 0 0 0 0 0 0 0 0 0 0 0 0 0 0 0 0 0 0 0
0 0 0 0 0 0 0 0 0 0 0 0 0 0 0 0 0 0 0 0 0 0 0 0 0 0 0 0 0 0 0 0 0 0 0 0 0 0 0 0 0 0 0
0 0 0 0 0 0 0 0 0 0 0 0 0 0 0 0 0 0 0 0 0 0 0 0 0 0 0 0 0 0 0 0 0 0 0 0 0 0 0 0 0 0 0
0 0 0 0 0 0 0 0 0 0 0 0 0 0 0 0 0 0 0 0 0 0 0 0 0 0 0 0 0 0 0 0 0 0 0 0 0 0 0 0 0 0 0
0 0 0 0 0 0 0 0 0 0 0 0 0 0 0 0 0 0 0 0 0 0 0 0 0 0 0 0 0 0 0 0 0 0 0 0 0 0 0 0 0 0 0
0 0 0 0 0 0 0 0 0 0 0 0 0 0 0 0 0 0 0 0 0 0 0 0 0 0 0 0 0 0 0 0 0 0 0 0 0 0 0 0 0 0 0
0 0 0 0 0 0 0 0 0 0 0 0 0 0 0 0 0 0 0 0 0 0 0 0 0 0 0 0 0 0 0 0 0 0 0 0 0 0 0 0 0 0 0
0 0 0 0 0 0 0 0 0 0 0 0 0 0 0 0 0 0 0 0 0 0 0 0 0 0 0 0 0 0 0 0 0 0 0 0 0 0 0 0 0 0 0
0 0 0 0 0 0 0 0 0 0 0 0 0 0 0 0 0 0 0 0 0 0 0 0 0 0 0 0 0 0 0 0 0 0 0 0 0 0 0 0 0 0 0
0 0 0 0 0 0 0 0 0 0 0 0 0 0 0 0 0 0 0 0 0 0 0 0 0 0 0 0 0 0 0 0 0 0 0 0 0 0 0 0 0 0 0
0 0 0 0 0 0 0 0 0 0 0 0 0 0 0 0 0 0 0 0 0 0 0 0 0 0 0 0 0 0 0 0 0 0 0 0 0 0 0 0 0 0 0
0 0 0 0 0 0 0 0 0 0 0 0 0 0 0 0 0 0 0 0 0 0 0 0 0 0 0 0 0 0 0 0 0 0 0 0 0 0 0 0 0 0 0
0 0 0 0 0 0 0 0 0 0 0 0 0 0 0 0 0 0 0 0 0 0 0 0 0 0 0 0 0 0 0 0 0 0 0 0 0 0 0 0 0 0 0
0 0 0 0 0 0 0 0 0 0 0 0 0 0 0 0 0 0 0 0 0 0 0 0 0 0 0 0 0 0 0 0 0 0 0 0 0 0 0 0 0 0 0
0 0 0 0 0 0 0 0 0 0 0 0 0 0 0 0 0 0 0 0 0 0 0 0 0 0 0 0 0 0 0 0 0 0 0 0 0 0 0 0 0 0 0
0 0 0 0 0 0 0 0 0 0 0 0 0 0 0 0 0 0 0 0 0 0 0 0 0 0 0 0 0 0 0 0 0 0 0 0 0 0 0 0 0 0 0
0 0 0 0 0 0 0 0 0 0 0 0 0 0 0 0 0 0 0 0 0 0 0 0 0 0 0 0 0 0 0 0 0 0 0 0 0 0 0 0 0 0 1
0 0 0 0 0 0 0 0 0 0 0 0 0 0 0 0 0 0 0 0 0 0 0 0 0 0 0 0 0 0 0 0 0 0 0 0 0 0 0 0 0 0 0
0 0 0 0 0 0 0 0 0 0 0 0 0 0 0 0 0 0 0 0 0 0 0 0 0 0 0 0 0 0 0 0 0 0 0 0 0 0 0 0 0 0 0
0 0 0 0 0 0 0 0 0 0 0 0 0 0 0 0 0 0 0 0 0 0 0 0 0 0 0 0 0 0 0 0 0 0 0 0 0 0 0 0 0 0 0
0 0 0 0 0 0 0 0 0 0 0 0 0 0 0 0 0 0 0 0 0 0 0 0 0 0 0 0 0 0 0 0 0 0 0 0 0 0 0 0 0 0 0
0 0 0 0 0 0 0 0 0 0 0 0 0 0 0 0 0 0 0 0 0 0 0 0 0 0 0 0 0 0 0 0 0 0 0 0 0 0 0 0 0 0 0
0 0 0 0 0 0 0 0 0 0 0 0 0 0 0 0 0 0 0 0 0 0 0 0 0 0 0 0 0 0 0 0 0 0 0 0 0 0 0 0 0 0 0
0 0 0 0 0 0 0 0 0 0 0 0 0 0 0 0 0 0 0 0 0 0 0 0 0 0 0 0 0 0 0 0 0 0 0 0 0 0 0 0 0 0 0
0 0 0 0 -0 -0 -0 -0 -0 0 0 0 0 0 0 0 0 0 0 0 0 0 0 0 0 0 0 0 0 0 0 0 0 0 0 0 0 0 0 0 0 0 0
0 0 -0 -0 -0 -0 -0 -0 -0 0 0 0 0 0 0 0 0 0 0 0 0 0 0 0 0 0 0 0 0 0 0 0 0 0 0 0 0 0 0 0 0 0 0
Wind_Speed_500mb
41 38 32 30 27 25 24 23 22 21 21 21 20 22 21 23 20 18 18 20 16 12 13 12 9 5 1 2 4 6 9 14 15 14 14 2 3 3 13 11 8 12 13
39 37 34 32 30 27 25 24 22 22 22 22 22 24 25 27 27 26 27 28 26 20 17 17 19 14 11 7 5 7 10 12 13 12 11 9 5 11 13 8 7 10 11
38 37 36 34 30 29 29 28 27 27 26 26 25 27 30 32 33 34 34 35 33 29 25 19 26 24 21 19 13 12 12 14 14 13 14 15 8 9 10 13 12 18 10
37 37 39 36 33 32 32 33 32 31 30 30 29 30 35 36 38 39 40 40 40 36 33 29 28 30 30 29 23 19 19 18 19 17 16 15 15 9 10 11 15 18 22
39 40 41 38 36 36 35 37 37 34 34 34 34 33 34 39 42 44 44 45 44 43 41 38 36 37 37 36 31 29 25 25 24 23 22 18 15 14 13 15 21 22 24
38 41 41 41 39 36 37 40 41 38 36 36 37 39 38 41 45 47 47 48 48 48 46 45 43 43 43 45 42 36 34 32 30 28 27 26 22 19 19 23 25 25 27
42 40 41 41 43 44 38 36 38 41 38 34 33 37 43 44 49 49 48 50 51 52 51 51 50 49 48 50 51 48 42 41 39 38 34 32 29 26 25 23 30 29 34
53 48 44 46 49 48 44 40 43 45 43 41 41 32 27 36 39 42 45 48 52 52 53 53 53 54 54 54 56 56 56 49 46 45 48 39 37 34 30 32 31 30 29
67 58 47 44 46 50 52 48 48 52 50 48 50 37 16 13 18 16 12 28 31 38 47 51 55 58 58 59 58 61 62 61 59 53 57 54 44 42 38 36 35 36 29
78 71 64 59 52 50 54 53 51 54 56 57 53 57 55 55 44 37 35 35 28 47 50 43 45 50 52 58 61 63 65 66 68 66 63 64 57 50 47 43 38 41 32
63 67 78 75 72 67 57 54 51 58 62 65 61 62 62 62 64 65 73 69 60 59 54 58 58 62 62 61 61 60 63 68 72 72 72 72 73 62 54 50 48 47 41
56 50 70 82 76 75 75 70 66 63 60 65 71 70 70 65 64 65 69 78 78 79 71 67 66 64 68 70 69 68 66 67 71 75 77 77 80 78 67 59 55 53 48
42 32 60 69 77 81 74 79 82 79 70 69 73 75 82 84 78 79 82 85 87 90 86 86 82 78 76 73 68 67 69 73 71 75 80 81 83 86 85 75 65 63 60
37 37 39 49 71 69 68 72 76 71 80 81 85 80 85 90 90 84 84 89 91 86 93 93 88 83 78 77 72 67 64 64 67 72 80 83 86 90 92 90 77 69 71
40 34 32 30 32 39 57 57 62 68 72 79 84 80 82 101 96 89 92 95 97 76 77 88 91 85 91 89 84 80 72 68 66 66 71 78 85 92 95 97 85 72 77
35 27 22 21 26 31 38 49 54 77 53 66 64 65 60 76 77 77 80 81 88 99 88 89 94 89 79 81 78 83 77 72 72 77 72 76 85 94 101 95 91 82 83
24 27 23 23 25 26 32 35 44 49 48 53 63 54 57 63 65 73 82 90 88 78 95 92 100 94 91 86 79 82 82 80 79 76 77 79 81 88 98 100 99 94 95
33 31 27 27 28 34 39 44 43 43 45 45 53 59 60 70 74 82 78 87 93 73 78 87 92 93 101 101 106 96 90 92 87 83 75 77 77 82 87 97 104 103 98
33 32 25 29 32 32 36 39 38 35 38 43 36 41 40 42 39 46 54 61 54 60 63 77 93 90 92 100 100 102 98 98 93 89 81 75 73 76 79 82 104 107 104
23 24 20 17 21 15 15 17 20 21 25 25 30 34 36 38 42 43 44 48 52 56 59 66 73 72 70 76 81 84 87 84 86 81 78 78 75 75 71 74 104 111 108
19 14 14 13 9 10 9 7 10 11 16 22 27 28 32 36 39 42 45 48 53 56 59 61 65 66 63 61 61 65 72 73 73 72 72 74 73 70 61 71 100 111 113
18 16 13 9 3 4 6 9 12 14 17 16 15 17 23 27 29 34 39 41 43 50 54 57 63 67 68 69 70 69 69 71 78 70 65 66 63 65 62 70 102 112 111
21 14 15 15 16 18 19 20 19 16 20 21 22 23 23 27 30 31 31 33 36 39 44 51 60 60 67 65 69 73 71 72 73 71 70 73 62 58 58 67 100 113 108
33 33 33 31 28 30 29 30 30 28 28 27 28 28 32 33 35 39 41 41 42 44 46 50 56 60 59 60 60 62 64 68 72 66 64 67 62 57 60 72 97 104 107
37 36 37 34 35 36 35 32 31 31 33 33 33 35 38 43 48 50 51 53 53 53 51 52 54 57 58 56 54 58 58 59 66 68 58 58 55 55 60 72 82 97 101
39 38 38 36 34 35 38 35 35 35 37 40 38 38 42 46 53 56 57 59 61 63 65 63 62 60 59 55 50 48 49 53 57 55 50 48 53 47 41 59 69 81 83
Wind_Direction_500mb
203 207 201 202 203 202 202 206 206 209 213 217 218 219 226 218 220 229 239 260 308 226 228 234 233 265 292 26 360 357 358 7 19 24 27 46 104 270 314 342 23 50 48
209 210 204 206 210 212 210 212 215 215 218 224 230 232 229 225 231 241 250 263 277 291 272 230 251 251 260 283 307 315 327 338 351 347 349 1 183 227 289 318 339 359 45
210 212 211 212 214 218 221 220 221 223 226 231 233 237 239 238 241 247 254 262 268 273 278 274 248 252 252 265 289 291 297 308 318 326 327 340 339 248 244 285 303 328 358
217 218 217 216 219 222 228 227 228 232 235 241 246 248 243 245 247 251 255 258 262 266 268 268 260 247 251 251 262 276 280 285 295 303 310 312 322 259 245 241 270 293 322
222 223 221 218 222 226 230 232 235 237 243 249 254 252 247 248 252 254 256 258 260 262 264 264 263 258 252 256 258 261 262 273 274 284 290 296 295 285 254 237 258 274 296
227 228 225 221 223 230 233 232 235 239 245 250 249 249 251 254 255 257 259 260 261 261 263 263 263 260 256 257 259 256 261 264 265 269 271 278 283 278 262 242 246 251 273
232 235 234 229 229 234 240 245 243 239 245 248 259 263 264 261 259 261 263 263 262 262 263 263 264 262 261 261 261 261 256 259 263 265 263 263 269 267 265 248 233 240 259
236 236 238 237 237 239 239 238 240 244 252 250 254 266 287 283 274 272 269 269 267 264 263 265 266 266 265 264 265 264 264 257 255 258 267 265 258 254 256 240 235 244 252
238 235 239 243 246 245 245 244 240 246 252 257 260 248 262 267 305 297 293 295 286 272 269 270 271 269 269 269 268 268 267 265 261 251 256 260 259 258 249 237 237 243 239
239 237 239 241 242 248 249 247 246 245 248 252 255 254 260 267 276 292 291 282 272 285 287 289 282 279 277 275 274 273 271 268 266 261 253 253 255 247 245 237 235 237 228
248 244 240 242 244 244 253 255 252 247 249 252 257 260 261 267 270 268 282 289 290 292 289 289 283 281 281 279 279 278 276 272 268 265 260 254 254 249 248 238 235 231 226
246 254 244 247 247 249 250 254 260 257 256 257 262 261 262 259 265 268 272 282 287 294 299 297 292 289 284 282 280 278 277 275 272 268 264 259 254 255 246 235 233 231 224
259 271 234 241 245 248 253 253 256 258 260 261 263 266 265 266 269 275 274 279 283 289 292 295 296 297 296 294 293 286 278 273 270 270 267 263 257 253 251 244 231 228 226
253 262 266 259 251 243 256 259 259 270 267 267 268 264 268 269 267 270 274 278 277 280 287 290 294 295 295 299 299 299 294 288 278 270 267 265 260 254 251 249 239 226 225
252 260 267 267 270 268 271 270 265 271 275 276 283 283 285 276 265 272 274 275 275 270 271 284 287 295 299 299 296 293 295 288 287 280 267 265 262 259 252 248 239 226 227
249 255 263 277 290 282 269 277 269 270 276 273 271 285 290 288 277 273 276 278 281 278 268 280 285 297 293 293 295 293 293 293 288 288 280 267 263 260 250 245 242 229 225
245 250 256 262 279 292 294 296 284 285 275 295 290 278 280 280 280 284 279 276 284 282 280 293 297 296 299 294 293 295 293 297 288 285 280 281 269 259 248 241 236 233 224
239 246 252 257 270 277 282 283 283 278 281 277 272 269 273 279 281 283 286 286 286 283 280 285 291 292 297 296 294 291 294 292 292 291 292 286 278 268 259 239 233 229 224
237 243 248 256 262 267 276 273 266 285 281 276 275 272 278 278 277 272 270 270 263 268 277 286 292 293 292 291 293 295 296 295 295 296 292 289 283 278 265 254 230 226 224
242 250 252 254 244 234 257 253 254 248 260 260 273 283 286 288 289 291 291 287 287 288 288 286 286 290 290 291 291 291 292 291 292 291 290 286 283 278 267 244 227 224 223
198 193 173 194 208 230 233 252 262 265 285 289 295 297 296 295 298 303 304 303 302 300 301 300 300 298 300 300 298 297 294 294 292 290 287 282 279 273 260 232 229 224 221
162 148 145 138 123 313 323 313 311 314 310 308 327 327 322 316 318 319 315 314 314 314 311 309 307 306 305 304 302 298 294 290 290 288 286 281 278 270 258 233 225 224 219
99 97 94 84 74 71 65 59 48 39 39 32 29 25 15 4 360 356 354 350 337 327 321 318 315 315 312 309 302 299 297 292 288 288 283 279 275 268 256 237 222 221 219
96 90 84 80 79 78 68 60 53 49 47 43 38 28 20 11 3 1 359 355 351 345 335 330 329 325 317 312 305 301 295 291 285 280 277 271 267 257 246 234 221 222 219
89 89 86 82 77 76 71 67 60 58 54 48 40 31 23 15 11 7 360 356 353 349 345 339 331 326 322 317 308 301 300 295 288 283 275 265 261 241 231 228 221 216 218
83 82 77 70 68 69 65 60 56 51 48 43 38 34 28 23 15 7 3 359 356 355 349 343 338 334 330 326 320 308 298 289 282 280 280 261 250 231 217 222 219 213 218
Wind_Speed_850mb
41 38 32 30 27 25 24 23 22 21 21 21 20 22 21 23 20 18 18 20 16 12 13 12 9 5 1 2 4 6 9 14 15 14 14 2 3 3 13 11 8 12 13
39 37 34 32 30 27 25 24 22 22 22 22 22 24 25 27 27 26 27 28 26 20 17 17 19 14 11 7 5 7 10 12 13 12 11 9 5 11 13 8 7 10 11
38 37 36 34 30 29 29 28 27 27 26 26 25 27 30 32 33 34 34 35 33 29 25 19 26 24 21 19 13 12 12 14 14 13 14 15 8 9 10 13 12 18 10
37 37 39 36 33 32 32 33 32 31 30 30 29 30 35 36 38 39 40 40 40 36 33 29 28 30 30 29 23 19 19 18 19 17 16 15 15 9 10 11 15 18 22
39 40 41 38 36 36 35 37 37 34 34 34 34 33 34 39 42 44 44 45 44 43 41 38 36 37 37 36 31 29 25 25 24 23 22 18 15 14 13 15 21 22 24
38 41 41 41 39 36 37 40 41 38 36 36 37 39 38 41 45 47 47 48 48 48 46 45 43 43 43 45 42 36 34 32 30 28 27 26 22 19 19 23 25 25 27
42 40 41 41 43 44 38 36 38 41 38 34 33 37 43 44 49 49 48 50 51 52 51 51 50 49 48 50 51 48 42 41 39 38 34 32 29 26 25 23 30 29 34
53 48 44 46 49 48 44 40 43 45 43 41 41 32 27 36 39 42 45 48 52 52 53 53 53 54 54 54 56 56 56 49 46 45 48 39 37 34 30 32 31 30 29
67 58 47 44 46 50 52 48 48 52 50 48 50 37 16 13 18 16 12 28 31 38 47 51 55 58 58 59 58 61 62 61 59 53 57 54 44 42 38 36 35 36 29
78 71 64 59 52 50 54 53 51 54 56 57 53 57 55 55 44 37 35 35 28 47 50 43 45 50 52 58 61 63 65 66 68 66 63 64 57 50 47 43 38 41 32
63 67 78 75 72 67 57 54 51 58 62 65 61 62 62 62 64 65 73 69 60 59 54 58 58 62 62 61 61 60 63 68 72 72 72 72 73 62 54 50 48 47 41
56 50 70 82 76 75 75 70 66 63 60 65 71 70 70 65 64 65 69 78 78 79 71 67 66 64 68 70 69 68 66 67 71 75 77 77 80 78 67 59 55 53 48
42 32 60 69 77 81 74 79 82 79 70 69 73 75 82 84 78 79 82 85 87 90 86 86 82 78 76 73 68 67 69 73 71 75 80 81 83 86 85 75 65 63 60
37 37 39 49 71 69 68 72 76 71 80 81 85 80 85 90 90 84 84 89 91 86 93 93 88 83 78 77 72 67 64 64 67 72 80 83 86 90 92 90 77 69 71
40 34 32 30 32 39 57 57 62 68 72 79 84 80 82 101 96 89 92 95 97 76 77 88 91 85 91 89 84 80 72 68 66 66 71 78 85 92 95 97 85 72 77
35 27 22 21 26 31 38 49 54 77 53 66 64 65 60 76 77 77 80 81 88 99 88 89 94 89 79 81 78 83 77 72 72 77 72 76 85 94 101 95 91 82 83
24 27 23 23 25 26 32 35 44 49 48 53 63 54 57 63 65 73 82 90 88 78 95 92 100 94 91 86 79 82 82 80 79 76 77 79 81 88 98 100 99 94 95
33 31 27 27 28 34 39 44 43 43 45 45 53 59 60 70 74 82 78 87 93 73 78 87 92 93 101 101 106 96 90 92 87 83 75 77 77 82 87 97 104 103 98
33 32 25 29 32 32 36 39 38 35 38 43 36 41 40 42 39 46 54 61 54 60 63 77 93 90 92 100 100 102 98 98 93 89 81 75 73 76 79 82 104 107 104
23 24 20 17 21 15 15 17 20 21 25 25 30 34 36 38 42 43 44 48 52 56 59 66 73 72 70 76 81 84 87 84 86 81 78 78 75 75 71 74 104 111 108
19 14 14 13 9 10 9 7 10 11 16 22 27 28 32 36 39 42 45 48 53 56 59 61 65 66 63 61 61 65 72 73 73 72 72 74 73 70 61 71 100 111 113
18 16 13 9 3 4 6 9 12 14 17 16 15 17 23 27 29 34 39 41 43 50 54 57 63 67 68 69 70 69 69 71 78 70 65 66 63 65 62 70 102 112 111
21 14 15 15 16 18 19 20 19 16 20 21 22 23 23 27 30 31 31 33 36 39 44 51 60 60 67 65 69 73 71 72 73 71 70 73 62 58 58 67 100 113 108
33 33 33 31 28 30 29 30 30 28 28 27 28 28 32 33 35 39 41 41 42 44 46 50 56 60 59 60 60 62 64 68 72 66 64 67 62 57 60 72 97 104 107
37 36 37 34 35 36 35 32 31 31 33 33 33 35 38 43 48 50 51 53 53 53 51 52 54 57 58 56 54 58 58 59 66 68 58 58 55 55 60 72 82 97 101
39 38 38 36 34 35 38 35 35 35 37 40 38 38 42 46 53 56 57 59 61 63 65 63 62 60 59 55 50 48 49 53 57 55 50 48 53 47 41 59 69 81 83
Wind_Direction_850mb
203 207 201 202 203 202 202 206 206 209 213 217 218 219 226 218 220 229 239 260 308 226 228 234 233 265 292 26 360 357 358 7 19 24 27 46 104 270 314 342 23 50 48
209 210 204 206 210 212 210 212 215 215 218 224 230 232 229 225 231 241 250 263 277 291 272 230 251 251 260 283 307 315 327 338 351 347 349 1 183 227 289 318 339 359 45
210 212 211 212 214 218 221 220 221 223 226 231 233 237 239 238 241 247 254 262 268 273 278 274 248 252 252 265 289 291 297 308 318 326 327 340 339 248 244 285 303 328 358
217 218 217 216 219 222 228 227 228 232 235 241 246 248 243 245 247 251 255 258 262 266 268 268 260 247 251 251 262 276 280 285 295 303 310 312 322 259 245 241 270 293 322
222 223 221 218 222 226 230 232 235 237 243 249 254 252 247 248 252 254 256 258 260 262 264 264 263 258 252 256 258 261 262 273 274 284 290 296 295 285 254 237 258 274 296
227 228 225 221 223 230 233 232 235 239 245 250 249 249 251 254 255 257 259 260 261 261 263 263 263 260 256 257 259 256 261 264 265 269 271 278 283 278 262 242 246 251 273
232 235 234 229 229 234 240 245 243 239 245 248 259 263 264 261 259 261 263 263 262 262 263 263 264 262 261 261 261 261 256 259 263 265 263 263 269 267 265 248 233 240 259
236 236 238 237 237 239 239 238 240 244 252 250 254 266 287 283 274 272 269 269 267 264 263 265 266 266 265 264 265 264 264 257 255 258 267 265 258 254 256 240 235 244 252
238 235 239 243 246 245 245 244 240 246 252 257 260 248 262 267 305 297 293 295 286 272 269 270 271 269 269 269 268 268 267 265 261 251 256 260 259 258 249 237 237 243 239
239 237 239 241 242 248 249 247 246 245 248 252 255 254 260 267 276 292 291 282 272 285 287 289 282 279 277 275 274 273 271 268 266 261 253 253 255 247 245 237 235 237 228
248 244 240 242 244 244 253 255 252 247 249 252 257 260 261 267 270 268 282 289 290 292 289 289 283 281 281 279 279 278 276 272 268 265 260 254 254 249 248 238 235 231 226
246 254 244 247 247 249 250 254 260 257 256 257 262 261 262 259 265 268 272 282 287 294 299 297 292 289 284 282 280 278 277 275 272 268 264 259 254 255 246 235 233 231 224
259 271 234 241 245 248 253 253 256 258 260 261 263 266 265 266 269 275 274 279 283 289 292 295 296 297 296 294 293 286 278 273 270 270 267 263 257 253 251 244 231 228 226
253 262 266 259 251 243 256 259 259 270 267 267 268 264 268 269 267 270 274 278 277 280 287 290 294 295 295 299 299 299 294 288 278 270 267 265 260 254 251 249 239 226 225
252 260 267 267 270 268 271 270 265 271 275 276 283 283 285 276 265 272 274 275 275 270 271 284 287 295 299 299 296 293 295 288 287 280 267 265 262 259 252 248 239 226 227
249 255 263 277 290 282 269 277 269 270 276 273 271 285 290 288 277 273 276 278 281 278 268 280 285 297 293 293 295 293 293 293 288 288 280 267 263 260 250 245 242 229 225
245 250 256 262 279 292 294 296 284 285 275 295 290 278 280 280 280 284 279 276 284 282 280 293 297 296 299 294 293 295 293 297 288 285 280 281 269 259 248 241 236 233 224
239 246 252 257 270 277 282 283 283 278 281 277 272 269 273 279 281 283 286 286 286 283 280 285 291 292 297 296 294 291 294 292 292 291 292 286 278 268 259 239 233 229 224
237 243 248 256 262 267 276 273 266 285 281 276 275 272 278 278 277 272 270 270 263 268 277 286 292 293 292 291 293 295 296 295 295 296 292 289 283 278 265 254 230 226 224
242 250 252 254 244 234 257 253 254 248 260 260 273 283 286 288 289 291 291 287 287 288 288 286 286 290 290 291 291 291 292 291 292 291 290 286 283 278 267 244 227 224 223
198 193 173 194 208 230 233 252 262 265 285 289 295 297 296 295 298 303 304 303 302 300 301 300 300 298 300 300 298 297 294 294 292 290 287 282 279 273 260 232 229 224 221
162 148 145 138 123 313 323 313 311 314 310 308 327 327 322 316 318 319 315 314 314 314 311 309 307 306 305 304 302 298 294 290 290 288 286 281 278 270 258 233 225 224 219
99 97 94 84 74 71 65 59 48 39 39 32 29 25 15 4 360 356 354 350 337 327 321 318 315 315 312 309 302 299 297 292 288 288 283 279 275 268 256 237 222 221 219
96 90 84 80 79 78 68 60 53 49 47 43 38 28 20 11 3 1 359 355 351 345 335 330 329 325 317 312 305 301 295 291 285 280 277 271 267 257 246 234 221 222 219
89 89 86 82 77 76 71 67 60 58 54 48 40 31 23 15 11 7 360 356 353 349 345 339 331 326 322 317 308 301 300 295 288 283 275 265 261 241 231 228 221 216 218
83 82 77 70 68 69 65 60 56 51 48 43 38 34 28 23 15 7 3 359 356 355 349 343 338 334 330 326 320 308 298 289 282 280 280 261 250 231 217 222 219 213 218